Stündliche Wetter 3 internacional

Heute, 23 Juni, Mittwoch

Zeit Temperatur Niederschläge Wind Luftdruck Luftfeuchtigkeit
00:00 +24°C° 0 mm 3 m/S 754 mmHg 28%
01:00 +24°C° 0 mm 3 m/S 754 mmHg 30%
02:00 +23°C° 0 mm 2 m/S 754 mmHg 32%
03:00 +23°C° 0 mm 2 m/S 754 mmHg 34%
04:00 +21°C° 0 mm 2 m/S 754 mmHg 38%
05:00 +24°C° 0 mm 1 m/S 754 mmHg 35%
06:00 +25°C° 0 mm 1 m/S 754 mmHg 33%
07:00 +26°C° 0 mm 1 m/S 755 mmHg 31%
08:00 +28°C° 0 mm 1 m/S 754 mmHg 28%
09:00 +29°C° 0 mm 2 m/S 754 mmHg 25%
10:00 +31°C° 0 mm 2 m/S 754 mmHg 22%
11:00 +32°C° 0 mm 2 m/S 754 mmHg 20%
12:00 +34°C° 0 mm 3 m/S 753 mmHg 18%
13:00 +35°C° 0 mm 4 m/S 753 mmHg 16%
14:00 +36°C° 0 mm 4 m/S 752 mmHg 16%
15:00 +37°C° 0 mm 4 m/S 751 mmHg 16%
16:00 +37°C° 0 mm 4 m/S 750 mmHg 16%
17:00 +38°C° 0 mm 6 m/S 750 mmHg 18%
18:00 +36°C° 0 mm 7 m/S 750 mmHg 19%
19:00 +35°C° 0 mm 8 m/S 749 mmHg 21%
20:00 +34°C° 0 mm 7 m/S 749 mmHg 22%
21:00 +33°C° 0 mm 7 m/S 749 mmHg 24%
22:00 +30°C° 0 mm 7 m/S 749 mmHg 25%
23:00 +29°C° 0 mm 6 m/S 749 mmHg 30%

Morgen, 24 Juni, Donnerstag

Zeit Temperatur Niederschläge Wind Luftdruck Luftfeuchtigkeit
00:00 +29°C° 0 mm 4 m/S 749 mmHg 35%
01:00 +28°C° 0 mm 3 m/S 748 mmHg 39%
02:00 +27°C° 0 mm 3 m/S 748 mmHg 42%
03:00 +27°C° 0 mm 3 m/S 748 mmHg 45%
04:00 +27°C° 0 mm 3 m/S 748 mmHg 47%
05:00 +27°C° 0 mm 4 m/S 749 mmHg 47%
06:00 +27°C° 0 mm 5 m/S 749 mmHg 46%
07:00 +28°C° 0 mm 6 m/S 749 mmHg 45%
08:00 +29°C° 0 mm 6 m/S 749 mmHg 42%
09:00 +30°C° 0 mm 7 m/S 750 mmHg 39%
10:00 +32°C° 0 mm 7 m/S 750 mmHg 35%
11:00 +32°C° 0 mm 7 m/S 750 mmHg 34%
12:00 +33°C° 0 mm 7 m/S 750 mmHg 32%
13:00 +33°C° 0 mm 7 m/S 750 mmHg 30%
14:00 +33°C° 0 mm 7 m/S 750 mmHg 28%
15:00 +33°C° 0 mm 7 m/S 750 mmHg 25%
16:00 +33°C° 0 mm 7 m/S 750 mmHg 23%
17:00 +32°C° 0 mm 6 m/S 750 mmHg 21%
18:00 +30°C° 0 mm 6 m/S 751 mmHg 18%
19:00 +29°C° 0 mm 6 m/S 751 mmHg 16%
20:00 +28°C° 0 mm 5 m/S 751 mmHg 16%
21:00 +27°C° 0 mm 5 m/S 751 mmHg 16%
22:00 +26°C° 0 mm 5 m/S 751 mmHg 17%
23:00 +25°C° 0 mm 4 m/S 751 mmHg 18%

übermorgen, 25 Juni, Freitag

Zeit Temperatur Niederschläge Wind Luftdruck Luftfeuchtigkeit
00:00 +23°C° 0 mm 4 m/S 751 mmHg 20%
01:00 +22°C° 0 mm 3 m/S 751 mmHg 22%
02:00 +21°C° 0 mm 3 m/S 751 mmHg 23%
03:00 +21°C° 0 mm 3 m/S 751 mmHg 24%
04:00 +20°C° 0 mm 2 m/S 751 mmHg 25%
05:00 +21°C° 0 mm 2 m/S 752 mmHg 24%
06:00 +24°C° 0 mm 2 m/S 752 mmHg 23%
07:00 +25°C° 0 mm 2 m/S 752 mmHg 22%
08:00 +26°C° 0 mm 2 m/S 752 mmHg 21%
09:00 +28°C° 0 mm 3 m/S 752 mmHg 20%
10:00 +29°C° 0 mm 3 m/S 752 mmHg 18%
11:00 +30°C° 0 mm 3 m/S 752 mmHg 17%
12:00 +32°C° 0 mm 4 m/S 751 mmHg 17%
13:00 +33°C° 0 mm 4 m/S 751 mmHg 16%
14:00 +33°C° 0 mm 5 m/S 751 mmHg 15%
15:00 +33°C° 0 mm 5 m/S 750 mmHg 15%
16:00 +34°C° 0 mm 6 m/S 750 mmHg 14%
17:00 +33°C° 0 mm 6 m/S 750 mmHg 16%
18:00 +32°C° 0 mm 5 m/S 750 mmHg 18%
19:00 +30°C° 0 mm 5 m/S 750 mmHg 19%
20:00 +29°C° 0 mm 4 m/S 750 mmHg 20%
21:00 +28°C° 0 mm 4 m/S 750 mmHg 20%
22:00 +27°C° 0 mm 4 m/S 750 mmHg 21%
23:00 +26°C° 0 mm 3 m/S 750 mmHg 22%

26 Juni, Samstag

Zeit Temperatur Niederschläge Wind Luftdruck Luftfeuchtigkeit
00:00 +26°C° 0 mm 3 m/S 750 mmHg 23%
01:00 +25°C° 0 mm 3 m/S 749 mmHg 24%
02:00 +24°C° 0 mm 3 m/S 749 mmHg 25%
03:00 +24°C° 0 mm 3 m/S 750 mmHg 26%
04:00 +22°C° 0 mm 3 m/S 750 mmHg 27%
05:00 +24°C° 0 mm 3 m/S 750 mmHg 26%
06:00 +26°C° 0 mm 3 m/S 750 mmHg 24%
07:00 +27°C° 0 mm 3 m/S 751 mmHg 23%
08:00 +29°C° 0 mm 2 m/S 750 mmHg 21%
09:00 +30°C° 0 mm 1 m/S 750 mmHg 19%
10:00 +32°C° 0 mm 1 m/S 750 mmHg 17%
11:00 +33°C° 0 mm 1 m/S 750 mmHg 17%
12:00 +33°C° 0 mm 1 m/S 750 mmHg 17%
13:00 +34°C° 0 mm 1 m/S 749 mmHg 16%
14:00 +35°C° 0 mm 1 m/S 749 mmHg 16%
15:00 +35°C° 0 mm 1 m/S 749 mmHg 16%
16:00 +35°C° 0 mm 1 m/S 748 mmHg 17%
17:00 +36°C° 0 mm 2 m/S 748 mmHg 18%
18:00 +35°C° 0 mm 3 m/S 748 mmHg 19%
19:00 +35°C° 0 mm 3 m/S 748 mmHg 20%
20:00 +33°C° 0 mm 3 m/S 748 mmHg 21%
21:00 +32°C° 0 mm 4 m/S 747 mmHg 21%
22:00 +30°C° 0 mm 4 m/S 747 mmHg 22%
23:00 +29°C° 0 mm 4 m/S 747 mmHg 23%

27 Juni, Sonntag

Zeit Temperatur Niederschläge Wind Luftdruck Luftfeuchtigkeit
00:00 +29°C° 0 mm 3 m/S 747 mmHg 23%
01:00 +29°C° 0 mm 3 m/S 747 mmHg 24%
02:00 +28°C° 0 mm 3 m/S 747 mmHg 25%
03:00 +28°C° 0 mm 3 m/S 747 mmHg 25%
04:00 +27°C° 0 mm 3 m/S 747 mmHg 26%
05:00 +29°C° 0 mm 4 m/S 747 mmHg 24%
06:00 +32°C° 0 mm 4 m/S 748 mmHg 22%
07:00 +33°C° 0 mm 4 m/S 748 mmHg 20%
08:00 +35°C° 0 mm 4 m/S 748 mmHg 18%
09:00 +36°C° 0 mm 5 m/S 747 mmHg 17%
10:00 +39°C° 0 mm 5 m/S 747 mmHg 15%
11:00 +40°C° 0 mm 4 m/S 747 mmHg 15%
12:00 +40°C° 0 mm 4 m/S 746 mmHg 15%
13:00 +41°C° 0 mm 4 m/S 746 mmHg 15%
14:00 +40°C° 0 mm 3 m/S 746 mmHg 14%
15:00 +42°C° 0 mm 3 m/S 746 mmHg 14%
16:00 +42°C° 0 mm 3 m/S 745 mmHg 14%
17:00 +40°C° 0 mm 3 m/S 745 mmHg 15%
18:00 +39°C° 0 mm 2 m/S 745 mmHg 16%
19:00 +38°C° 0 mm 2 m/S 745 mmHg 18%
20:00 +36°C° 0 mm 2 m/S 745 mmHg 19%
21:00 +35°C° 0 mm 2 m/S 745 mmHg 20%
22:00 +34°C° 0 mm 2 m/S 745 mmHg 21%
23:00 +32°C° 0 mm 2 m/S 744 mmHg 23%

28 Juni, Montag

Zeit Temperatur Niederschläge Wind Luftdruck Luftfeuchtigkeit
00:00 +31°C° 0 mm 2 m/S 744 mmHg 25%
01:00 +30°C° 0 mm 1 m/S 744 mmHg 27%
02:00 +30°C° 0 mm 1 m/S 744 mmHg 28%
03:00 +31°C° 0 mm 1 m/S 744 mmHg 30%
04:00 +31°C° 0 mm 2 m/S 744 mmHg 31%
05:00 +32°C° 0 mm 1 m/S 744 mmHg 30%
06:00 +33°C° 0 mm 1 m/S 745 mmHg 29%
07:00 +34°C° 0 mm 1 m/S 745 mmHg 28%
08:00 +36°C° 0 mm 1 m/S 745 mmHg 25%
09:00 +37°C° 0 mm 1 m/S 745 mmHg 21%
10:00 +40°C° 0 mm 1 m/S 745 mmHg 18%
11:00 +40°C° 0 mm 1 m/S 744 mmHg 17%
12:00 +41°C° 0 mm 2 m/S 744 mmHg 16%
13:00 +43°C° 0 mm 3 m/S 744 mmHg 14%
14:00 +43°C° 0 mm 3 m/S 743 mmHg 14%
15:00 +43°C° 0 mm 3 m/S 743 mmHg 14%
16:00 +43°C° 0 mm 3 m/S 743 mmHg 14%
17:00 +42°C° 0 mm 4 m/S 743 mmHg 15%
18:00 +41°C° 0 mm 4 m/S 743 mmHg 16%
19:00 +41°C° 0 mm 5 m/S 743 mmHg 18%
20:00 +39°C° 0 mm 6 m/S 743 mmHg 18%
21:00 +38°C° 0 mm 6 m/S 744 mmHg 19%
22:00 +36°C° 0 mm 7 m/S 744 mmHg 20%
23:00 +35°C° 0 mm 6 m/S 744 mmHg 22%
Mehr zeigen

Wir brauchen deine Erlaubnis

Meteoprog und unser Service Anbieter werden persönliche Daten aufbewahren, so wie Cookies, Geräte Bezeichnung oder ähnliche Technologien von deinem Gerät und Prozess, so wie Persönliche Daten Inhalte und Werbungen, genauso wie social Media und den Verkehr zu analysieren.

  • Aufbewahrung und/oder Zugang zu deiner Geräte Informationen.

    Cookies, Geräte Bezeichnung oder andere Informationen, können aufbewahrt oder Zugang zu deinem Gerät erhalten, für den Grund, der oben angegeben wird.

  • Personalisierte Werbung und Inhalte, Messungen, Einblick in das Publikum und Produkt Entwicklung.

    Werbungen und Inhalte können personalisiert werden, basierend auf ein Profil. Mehr Daten können besser personalisierte Werbungen und Inhalte hinzufügen. Werbung und Inhalte können gezeigt und gemessen werden. Einblicke über das Publikum, welche die Werbung gesehen haben und den Inhalt, können abgeleitet werden. So wie Daten können genutzt werden, um es zu verbessern oder die Benutzer Erfahrung zu verbessern das System und die Software.

Wenn du “Ich stimme zu” klickst, erlaubst du uns, die Cookies zu benutzen die Geräte Bezeichnung, den Web oder ähnliche Technologien zu benutzen. Deine Settings, können in deinem Gerät bei deinem Browser geändert werden.

Für den bestimmten Zweck, berechtigten Interessen beruhen darauf, mehr als auf den Inhalt. Du kannst mehr darüber in unseren Privaten und Cookie Politik lesen.